Location: Unspecified
(0.0000°N, 0.0000°E)
Time: 05:41:57
(UTC+00:00)

Transit 4A - Pass Details

Date: 10 October 2020
Orbit: 862 x 982 km, 66.8° (Epoch: 28 October)

Event Time Altitude Azimuth Distance (km) Brightness Sun altitude
Rises 04:37:11 0° 9° (N) 3,641 11.0 -17.3°
Reaches altitude 10° 04:40:36 10° 27° (NNE) 2,680 10.6 -16.5°
Maximum altitude 04:44:46 19° 69° (ENE) 2,109 10.6 -15.4°
Drops below altitude 10° 04:48:51 10° 112° (ESE) 2,634 11.6 -14.4°
Sets 04:52:09 0° 129° (SE) 3,556 12.0 -13.6°
